SCP
0 0 0 0 0 0 0 0 0 0 1 0 0 0 0 0 0 0 0 0 0 0 1 0 0 0 0 1 0 0 0 0 0 0 0 0 0 0 0 0 0 2 1
0 0 0 0 0 0 0 1 1 1 1 1 2 1 1 0 0 0 1 1 0 0 0 1 1 1 0 1 1 1 0 0 0 0 0 0 0 0 0 0 2 2 2
0 0 0 0 0 0 1 0 1 2 2 2 1 0 1 1 0 0 0 0 0 0 0 0 0 0 0 0 1 1 0 0 0 0 0 0 0 0 0 1 1 2 2
0 0 0 0 0 0 0 1 1 0 0 0 0 0 0 0 0 0 0 0 0 0 0 0 0 0 0 0 0 0 0 1 0 0 0 0 0 0 0 1 1 1 2
0 0 0 0 0 0 0 0 0 0 0 0 0 0 0 0 0 0 0 0 0 0 0 0 0 0 0 0 0 0 0 0 1 1 0 0 0 0 0 0 0 1 1
0 0 0 0 0 0 0 0 0 0 0 0 0 0 0 0 0 0 0 0 0 0 0 0 0 0 0 0 0 0 0 0 0 0 1 0 0 0 0 0 0 0 1
0 0 0 0 0 0 0 0 0 0 0 0 0 0 0 0 0 0 0 0 0 0 0 0 0 0 0 0 0 0 0 0 0 0 0 0 0 0 1 1 0 0 0
0 0 0 0 0 0 0 0 0 0 0 0 0 0 0 0 0 0 0 0 0 0 0 0 0 0 0 0 0 0 0 0 0 0 0 0 1 0 0 0 0 0 0
0 0 0 0 0 0 0 0 0 0 0 0 0 0 0 0 0 0 0 0 0 0 0 0 0 0 0 0 0 0 0 0 0 0 0 0 0 0 -0 0 0 0 0
0 0 0 0 0 0 0 0 0 0 0 0 0 0 0 0 0 0 0 0 0 0 0 0 0 0 0 0 0 0 0 0 0 0 0 0 0 1 0 0 0 0 0
0 0 0 0 0 0 0 0 0 0 0 0 0 0 0 0 0 0 0 0 0 0 0 0 0 0 0 0 0 0 0 0 0 0 0 0 0 0 0 0 0 0 0
0 0 0 0 0 0 0 0 0 0 0 0 0 0 0 0 0 0 0 0 0 0 0 0 0 0 0 0 0 -0 0 0 0 0 0 0 0 0 0 0 0 0 0
0 0 0 0 0 0 0 0 0 0 0 0 0 0 0 0 0 0 0 0 0 0 0 0 0 0 0 0 0 -0 -0 -0 0 0 0 0 0 0 0 0 0 0 0
0 0 0 0 0 0 0 0 0 0 0 0 0 0 0 0 0 0 0 0 0 0 0 0 0 0 0 0 0 0 0 0 0 0 0 0 0 0 0 0 0 0 0
0 0 0 0 0 0 0 0 0 0 0 0 0 0 0 0 0 0 0 0 0 0 0 0 0 0 0 0 0 -0 -0 0 0 0 0 0 0 0 0 0 0 0 0
0 0 0 0 0 0 0 0 0 0 0 0 0 0 0 0 0 0 0 0 0 0 0 0 0 0 0 0 -0 0 -0 0 0 0 0 0 0 0 0 0 0 0 0
0 0 0 0 0 0 0 0 0 0 0 0 0 0 0 0 0 0 0 0 0 0 0 0 0 0 0 -0 -0 -0 -0 0 0 0 0 0 0 0 0 0 0 0 0
0 0 0 0 0 0 0 0 0 0 0 0 0 0 0 0 0 0 0 0 0 0 0 0 0 0 -0 -0 -0 -0 -0 0 0 0 0 0 0 0 0 0 0 0 0
0 0 0 0 0 0 0 0 0 0 0 0 0 0 0 0 0 0 0 0 0 0 0 0 0 -0 -0 -0 -0 -0 0 0 0 0 0 0 0 0 0 0 0 0 -0
0 0 0 0 0 0 0 0 0 0 0 0 0 0 0 0 0 0 0 0 0 0 0 0 0 0 0 -0 -0 0 0 0 0 0 0 0 0 0 0 0 0 0 -0
0 0 0 0 0 0 0 0 0 0 0 0 0 0 0 0 0 0 0 0 0 0 -0 -0 0 0 -0 0 0 0 0 0 0 0 0 0 0 0 0 0 0 0 0
0 0 0 0 0 0 0 0 0 0 0 0 0 0 0 0 0 0 0 0 0 0 0 0 0 0 -0 -0 -0 0 0 0 0 0 0 0 0 0 0 0 0 0 0
0 0 0 0 0 0 0 0 0 0 0 0 0 0 0 0 0 0 0 0 0 0 0 0 0 -0 0 0 -0 0 0 0 0 0 0 0 0 0 0 0 0 0 0
0 0 0 0 0 0 0 0 0 0 0 0 0 0 0 0 0 0 0 0 0 0 0 0 0 0 0 0 0 0 0 0 0 0 0 0 0 0 0 0 0 0 0
0 0 0 0 0 0 0 0 0 0 0 0 0 0 0 0 0 0 0 0 0 0 0 0 -0 0 0 0 0 0 0 0 0 0 0 0 0 0 0 0 0 0 0
0 0 0 0 0 0 0 0 0 0 0 0 0 0 0 0 0 0 0 0 0 0 0 -0 -0 0 0 0 0 0 0 0 0 0 0 0 0 0 0 0 0 0 0
Wind_Speed_500mb
34 35 33 23 15 11 11 13 16 21 24 28 31 37 38 44 47 49 49 49 52 51 29 34 39 43 49 48 46 50 44 44 40 42 40 44 44 45 36 30 36 35 22
32 31 35 25 18 15 17 20 23 26 28 32 35 38 42 46 47 49 47 48 39 33 33 38 41 45 46 52 54 57 54 58 49 44 46 47 48 50 42 39 41 34 32
33 32 32 28 22 21 24 27 27 26 28 33 34 38 41 48 51 47 42 45 44 39 43 44 51 50 49 53 55 52 50 57 47 42 46 42 46 49 33 44 43 33 32
28 32 34 30 24 27 27 24 24 23 22 34 29 34 40 44 44 49 50 52 53 55 59 67 57 54 55 59 58 60 59 61 68 53 58 38 43 48 51 25 21 22 22
28 29 32 13 11 20 20 19 21 21 23 26 28 34 43 45 51 54 61 64 67 63 53 52 53 48 47 52 48 50 56 62 57 59 64 53 48 42 42 52 35 25 31
26 23 11 12 17 18 21 23 26 30 30 34 38 43 47 51 56 59 59 51 49 45 43 42 49 55 61 59 58 51 54 51 55 58 60 67 39 42 48 37 46 43 31
18 12 10 19 18 24 24 30 33 36 37 41 46 49 53 56 59 54 55 50 49 48 47 52 55 53 49 42 40 47 54 61 56 56 63 61 64 52 37 29 30 31 31
16 13 16 17 22 25 29 34 36 39 42 46 49 53 54 58 61 59 56 57 47 43 44 44 46 44 43 43 44 41 45 50 58 58 62 67 65 64 43 23 23 16 29
13 16 17 18 24 30 32 34 39 42 46 50 51 52 46 49 55 60 57 52 44 44 42 47 49 50 45 45 47 45 46 49 53 49 52 60 56 53 55 28 23 15 7
17 17 19 23 27 32 34 37 42 46 48 49 48 48 50 50 53 49 45 47 47 46 52 54 59 57 56 55 49 43 40 41 42 39 40 46 51 54 20 21 18 16 14
17 18 21 30 28 34 38 42 44 47 47 47 48 50 46 53 49 44 42 42 48 51 57 61 71 57 58 50 41 39 38 36 40 30 31 34 40 40 42 16 15 15 19
16 23 27 30 30 37 39 43 44 45 45 45 47 47 50 54 57 49 44 43 44 52 60 65 55 52 44 38 33 32 32 31 26 26 25 17 25 39 35 23 22 26 18
20 26 29 30 34 37 41 43 45 43 43 43 43 46 46 47 43 46 50 48 49 62 60 50 46 43 38 33 32 24 31 26 24 32 26 16 15 18 18 22 21 21 23
27 28 28 32 35 38 41 45 42 42 41 41 45 48 48 52 52 51 46 53 62 54 50 45 44 38 36 31 25 26 22 22 20 24 35 30 26 15 15 13 17 22 27
28 27 28 33 36 39 42 44 41 42 42 44 47 50 52 53 52 47 54 62 58 46 45 40 40 35 32 29 22 20 19 22 17 19 25 37 33 24 20 15 13 19 25
29 28 29 33 35 38 42 43 41 46 45 51 51 53 56 53 47 50 63 57 46 46 42 38 37 35 28 23 17 24 17 14 17 16 16 23 33 31 28 23 16 9 17
29 27 29 31 34 37 40 40 42 46 43 49 50 52 54 50 45 58 55 50 55 50 39 36 29 30 19 15 13 18 20 14 15 15 20 22 17 20 16 18 16 13 14
26 25 27 30 33 36 38 39 39 38 43 49 49 52 52 46 52 56 58 59 52 40 33 19 30 23 17 17 13 13 13 14 14 16 17 20 17 20 16 16 15 12 8
18 21 24 29 32 35 38 37 38 37 39 42 51 46 45 51 51 58 58 48 40 38 29 23 21 14 16 15 14 17 13 14 15 20 19 19 18 18 18 17 16 15 15
18 22 25 27 31 34 35 36 37 37 36 43 47 44 45 53 55 53 47 40 37 38 25 23 12 11 15 12 21 19 16 17 18 19 21 25 16 20 21 14 11 10 15
17 20 25 29 30 34 35 36 36 35 41 40 43 43 48 54 51 45 38 34 34 35 19 10 9 8 13 16 25 23 21 18 21 18 21 16 19 19 15 12 8 14 25
20 23 26 28 30 33 33 36 36 37 39 40 39 39 52 53 43 38 38 39 36 26 13 3 15 18 14 15 23 26 24 21 23 20 20 20 19 18 13 11 17 38 36
19 21 25 29 30 31 31 35 34 38 38 38 37 39 54 47 39 38 45 44 32 14 9 14 16 20 19 20 28 24 23 20 27 17 16 17 27 21 16 28 33 34 39
18 20 23 27 30 29 32 31 33 36 36 38 34 43 53 44 37 39 42 34 27 18 16 18 22 27 25 30 31 30 28 30 28 26 25 33 29 22 42 45 32 35 38
14 16 21 25 28 31 30 30 31 33 35 35 33 41 49 41 36 36 38 33 27 18 15 19 25 34 37 29 26 27 29 34 31 36 38 29 27 45 42 44 47 40 32
14 14 18 22 25 28 28 31 29 30 34 31 31 38 45 37 33 28 30 36 32 26 24 22 35 37 31 32 31 31 37 44 47 39 36 35 40 38 43 46 41 32 28
Wind_Direction_500mb
207 191 201 202 214 233 269 290 289 295 302 306 301 304 300 299 297 296 292 288 286 275 281 294 293 290 291 292 292 291 296 285 285 283 282 280 277 268 263 276 277 268 240
211 198 211 223 243 264 282 293 292 294 296 299 295 294 296 298 296 294 289 291 286 292 303 296 297 293 286 280 279 281 277 278 275 276 286 291 278 265 259 256 251 250 263
210 205 225 238 261 278 287 292 293 291 294 290 300 300 294 298 298 296 296 297 298 301 303 297 297 292 291 287 281 279 275 277 269 272 273 286 283 283 291 235 246 273 253
214 222 228 242 264 282 289 287 289 299 306 293 304 300 312 306 300 301 296 294 296 293 289 298 290 288 285 282 280 280 273 268 265 262 260 265 264 277 282 265 205 242 238
229 227 242 248 293 289 295 299 300 309 311 316 318 314 307 301 301 297 295 293 293 296 292 289 290 285 276 272 276 275 271 269 266 254 260 258 262 260 257 265 262 250 242
243 236 230 302 287 285 298 301 303 305 308 309 311 311 309 306 303 300 301 303 298 296 296 291 282 285 287 284 274 274 265 266 262 257 250 250 269 261 248 252 264 261 251
249 230 278 277 285 293 295 301 304 305 305 307 307 306 305 304 304 304 302 299 298 296 293 290 294 295 295 295 297 283 276 265 265 258 254 252 248 242 243 241 252 263 253
316 285 275 283 290 299 301 302 306 307 307 308 306 307 304 299 297 293 291 292 293 292 296 296 292 289 290 288 284 288 286 271 260 264 254 241 243 249 243 228 235 255 264
277 270 275 283 296 302 307 307 309 309 308 308 309 308 308 308 307 304 292 292 292 291 295 289 291 292 286 288 288 287 287 279 266 265 255 245 239 253 227 222 231 233 251
275 274 286 292 301 305 309 310 309 310 311 312 311 305 304 308 308 308 297 291 291 292 291 287 294 290 290 287 283 286 288 279 267 265 258 241 237 223 255 205 205 214 198
274 287 298 304 305 306 310 311 313 313 315 316 313 312 307 311 305 300 299 295 290 293 295 297 299 293 288 287 277 277 281 290 264 262 241 223 214 215 235 212 196 217 205
303 304 306 311 309 311 313 315 315 315 317 317 317 316 312 307 302 296 300 303 302 296 298 296 297 298 294 286 267 271 275 283 270 257 244 196 213 216 221 239 225 217 210
297 308 312 315 315 316 318 318 317 317 317 317 319 317 313 309 307 302 303 307 304 305 306 301 299 297 294 286 262 275 277 271 271 236 226 236 192 204 209 210 221 217 223
315 316 315 316 317 319 320 320 317 317 315 316 317 314 316 317 313 308 310 303 311 308 310 305 298 294 289 283 263 254 267 264 258 236 220 221 210 205 222 227 232 238 218
317 319 317 317 319 321 321 321 317 317 315 314 313 316 314 313 314 314 311 316 313 303 309 309 308 292 278 276 256 260 259 252 251 236 220 215 221 218 206 202 239 231 216
321 320 318 318 321 322 323 323 320 318 315 315 311 316 316 318 319 311 322 323 321 317 301 295 310 301 274 264 240 257 246 229 234 222 207 199 205 213 224 223 231 219 212
321 317 318 319 321 322 324 324 319 318 316 314 317 321 322 321 321 327 331 330 328 322 320 303 293 304 249 245 247 223 219 217 202 201 199 190 210 191 208 208 200 190 196
317 313 315 318 320 322 325 322 320 321 319 320 327 328 328 328 329 331 336 330 331 331 327 312 317 303 224 226 209 202 196 210 203 196 179 165 181 175 172 180 176 175 179
313 310 313 317 320 323 323 325 320 321 323 327 328 328 329 335 339 336 333 338 340 341 336 312 300 262 206 224 200 186 195 176 175 182 170 163 156 181 165 163 160 165 174
306 306 312 320 321 323 326 323 321 324 327 324 331 331 332 343 340 339 341 342 343 346 332 316 329 173 189 200 182 173 169 162 160 158 171 164 170 161 156 132 131 145 170
306 306 318 320 323 326 326 322 322 326 322 330 338 333 344 346 344 343 346 347 348 344 339 355 121 128 187 175 172 178 169 177 164 158 148 172 178 178 175 191 196 165 162
303 306 314 320 326 329 322 325 325 325 333 337 343 335 349 351 350 349 350 351 340 342 353 22 165 157 154 160 163 164 171 170 153 142 159 172 169 157 158 148 142 139 137
297 310 315 324 326 330 324 329 330 332 335 347 338 344 353 357 1 3 358 353 359 10 65 100 125 147 153 158 156 155 155 156 170 153 151 158 155 147 135 130 131 136 134
295 307 320 323 328 326 328 330 332 332 340 346 340 348 357 3 10 8 8 14 18 57 94 110 127 127 123 137 143 145 146 146 150 156 127 135 146 141 125 121 128 128 132
288 308 322 324 327 329 334 335 332 342 339 347 346 344 359 9 16 24 17 27 37 56 104 115 131 131 122 121 133 146 138 143 146 136 132 133 135 131 131 122 128 126 136
277 305 321 324 330 331 338 335 338 347 342 349 349 348 2 13 26 41 39 40 50 71 86 104 121 121 120 121 119 129 129 129 125 137 137 133 126 129 131 129 133 132 127
Wind_Speed_850mb
34 35 33 23 15 11 11 13 16 21 24 28 31 37 38 44 47 49 49 49 52 51 29 34 39 43 49 48 46 50 44 44 40 42 40 44 44 45 36 30 36 35 22
32 31 35 25 18 15 17 20 23 26 28 32 35 38 42 46 47 49 47 48 39 33 33 38 41 45 46 52 54 57 54 58 49 44 46 47 48 50 42 39 41 34 32
33 32 32 28 22 21 24 27 27 26 28 33 34 38 41 48 51 47 42 45 44 39 43 44 51 50 49 53 55 52 50 57 47 42 46 42 46 49 33 44 43 33 32
28 32 34 30 24 27 27 24 24 23 22 34 29 34 40 44 44 49 50 52 53 55 59 67 57 54 55 59 58 60 59 61 68 53 58 38 43 48 51 25 21 22 22
28 29 32 13 11 20 20 19 21 21 23 26 28 34 43 45 51 54 61 64 67 63 53 52 53 48 47 52 48 50 56 62 57 59 64 53 48 42 42 52 35 25 31
26 23 11 12 17 18 21 23 26 30 30 34 38 43 47 51 56 59 59 51 49 45 43 42 49 55 61 59 58 51 54 51 55 58 60 67 39 42 48 37 46 43 31
18 12 10 19 18 24 24 30 33 36 37 41 46 49 53 56 59 54 55 50 49 48 47 52 55 53 49 42 40 47 54 61 56 56 63 61 64 52 37 29 30 31 31
16 13 16 17 22 25 29 34 36 39 42 46 49 53 54 58 61 59 56 57 47 43 44 44 46 44 43 43 44 41 45 50 58 58 62 67 65 64 43 23 23 16 29
13 16 17 18 24 30 32 34 39 42 46 50 51 52 46 49 55 60 57 52 44 44 42 47 49 50 45 45 47 45 46 49 53 49 52 60 56 53 55 28 23 15 7
17 17 19 23 27 32 34 37 42 46 48 49 48 48 50 50 53 49 45 47 47 46 52 54 59 57 56 55 49 43 40 41 42 39 40 46 51 54 20 21 18 16 14
17 18 21 30 28 34 38 42 44 47 47 47 48 50 46 53 49 44 42 42 48 51 57 61 71 57 58 50 41 39 38 36 40 30 31 34 40 40 42 16 15 15 19
16 23 27 30 30 37 39 43 44 45 45 45 47 47 50 54 57 49 44 43 44 52 60 65 55 52 44 38 33 32 32 31 26 26 25 17 25 39 35 23 22 26 18
20 26 29 30 34 37 41 43 45 43 43 43 43 46 46 47 43 46 50 48 49 62 60 50 46 43 38 33 32 24 31 26 24 32 26 16 15 18 18 22 21 21 23
27 28 28 32 35 38 41 45 42 42 41 41 45 48 48 52 52 51 46 53 62 54 50 45 44 38 36 31 25 26 22 22 20 24 35 30 26 15 15 13 17 22 27
28 27 28 33 36 39 42 44 41 42 42 44 47 50 52 53 52 47 54 62 58 46 45 40 40 35 32 29 22 20 19 22 17 19 25 37 33 24 20 15 13 19 25
29 28 29 33 35 38 42 43 41 46 45 51 51 53 56 53 47 50 63 57 46 46 42 38 37 35 28 23 17 24 17 14 17 16 16 23 33 31 28 23 16 9 17
29 27 29 31 34 37 40 40 42 46 43 49 50 52 54 50 45 58 55 50 55 50 39 36 29 30 19 15 13 18 20 14 15 15 20 22 17 20 16 18 16 13 14
26 25 27 30 33 36 38 39 39 38 43 49 49 52 52 46 52 56 58 59 52 40 33 19 30 23 17 17 13 13 13 14 14 16 17 20 17 20 16 16 15 12 8
18 21 24 29 32 35 38 37 38 37 39 42 51 46 45 51 51 58 58 48 40 38 29 23 21 14 16 15 14 17 13 14 15 20 19 19 18 18 18 17 16 15 15
18 22 25 27 31 34 35 36 37 37 36 43 47 44 45 53 55 53 47 40 37 38 25 23 12 11 15 12 21 19 16 17 18 19 21 25 16 20 21 14 11 10 15
17 20 25 29 30 34 35 36 36 35 41 40 43 43 48 54 51 45 38 34 34 35 19 10 9 8 13 16 25 23 21 18 21 18 21 16 19 19 15 12 8 14 25
20 23 26 28 30 33 33 36 36 37 39 40 39 39 52 53 43 38 38 39 36 26 13 3 15 18 14 15 23 26 24 21 23 20 20 20 19 18 13 11 17 38 36
19 21 25 29 30 31 31 35 34 38 38 38 37 39 54 47 39 38 45 44 32 14 9 14 16 20 19 20 28 24 23 20 27 17 16 17 27 21 16 28 33 34 39
18 20 23 27 30 29 32 31 33 36 36 38 34 43 53 44 37 39 42 34 27 18 16 18 22 27 25 30 31 30 28 30 28 26 25 33 29 22 42 45 32 35 38
14 16 21 25 28 31 30 30 31 33 35 35 33 41 49 41 36 36 38 33 27 18 15 19 25 34 37 29 26 27 29 34 31 36 38 29 27 45 42 44 47 40 32
14 14 18 22 25 28 28 31 29 30 34 31 31 38 45 37 33 28 30 36 32 26 24 22 35 37 31 32 31 31 37 44 47 39 36 35 40 38 43 46 41 32 28
Wind_Direction_850mb
207 191 201 202 214 233 269 290 289 295 302 306 301 304 300 299 297 296 292 288 286 275 281 294 293 290 291 292 292 291 296 285 285 283 282 280 277 268 263 276 277 268 240
211 198 211 223 243 264 282 293 292 294 296 299 295 294 296 298 296 294 289 291 286 292 303 296 297 293 286 280 279 281 277 278 275 276 286 291 278 265 259 256 251 250 263
210 205 225 238 261 278 287 292 293 291 294 290 300 300 294 298 298 296 296 297 298 301 303 297 297 292 291 287 281 279 275 277 269 272 273 286 283 283 291 235 246 273 253
214 222 228 242 264 282 289 287 289 299 306 293 304 300 312 306 300 301 296 294 296 293 289 298 290 288 285 282 280 280 273 268 265 262 260 265 264 277 282 265 205 242 238
229 227 242 248 293 289 295 299 300 309 311 316 318 314 307 301 301 297 295 293 293 296 292 289 290 285 276 272 276 275 271 269 266 254 260 258 262 260 257 265 262 250 242
243 236 230 302 287 285 298 301 303 305 308 309 311 311 309 306 303 300 301 303 298 296 296 291 282 285 287 284 274 274 265 266 262 257 250 250 269 261 248 252 264 261 251
249 230 278 277 285 293 295 301 304 305 305 307 307 306 305 304 304 304 302 299 298 296 293 290 294 295 295 295 297 283 276 265 265 258 254 252 248 242 243 241 252 263 253
316 285 275 283 290 299 301 302 306 307 307 308 306 307 304 299 297 293 291 292 293 292 296 296 292 289 290 288 284 288 286 271 260 264 254 241 243 249 243 228 235 255 264
277 270 275 283 296 302 307 307 309 309 308 308 309 308 308 308 307 304 292 292 292 291 295 289 291 292 286 288 288 287 287 279 266 265 255 245 239 253 227 222 231 233 251
275 274 286 292 301 305 309 310 309 310 311 312 311 305 304 308 308 308 297 291 291 292 291 287 294 290 290 287 283 286 288 279 267 265 258 241 237 223 255 205 205 214 198
274 287 298 304 305 306 310 311 313 313 315 316 313 312 307 311 305 300 299 295 290 293 295 297 299 293 288 287 277 277 281 290 264 262 241 223 214 215 235 212 196 217 205
303 304 306 311 309 311 313 315 315 315 317 317 317 316 312 307 302 296 300 303 302 296 298 296 297 298 294 286 267 271 275 283 270 257 244 196 213 216 221 239 225 217 210
297 308 312 315 315 316 318 318 317 317 317 317 319 317 313 309 307 302 303 307 304 305 306 301 299 297 294 286 262 275 277 271 271 236 226 236 192 204 209 210 221 217 223
315 316 315 316 317 319 320 320 317 317 315 316 317 314 316 317 313 308 310 303 311 308 310 305 298 294 289 283 263 254 267 264 258 236 220 221 210 205 222 227 232 238 218
317 319 317 317 319 321 321 321 317 317 315 314 313 316 314 313 314 314 311 316 313 303 309 309 308 292 278 276 256 260 259 252 251 236 220 215 221 218 206 202 239 231 216
321 320 318 318 321 322 323 323 320 318 315 315 311 316 316 318 319 311 322 323 321 317 301 295 310 301 274 264 240 257 246 229 234 222 207 199 205 213 224 223 231 219 212
321 317 318 319 321 322 324 324 319 318 316 314 317 321 322 321 321 327 331 330 328 322 320 303 293 304 249 245 247 223 219 217 202 201 199 190 210 191 208 208 200 190 196
317 313 315 318 320 322 325 322 320 321 319 320 327 328 328 328 329 331 336 330 331 331 327 312 317 303 224 226 209 202 196 210 203 196 179 165 181 175 172 180 176 175 179
313 310 313 317 320 323 323 325 320 321 323 327 328 328 329 335 339 336 333 338 340 341 336 312 300 262 206 224 200 186 195 176 175 182 170 163 156 181 165 163 160 165 174
306 306 312 320 321 323 326 323 321 324 327 324 331 331 332 343 340 339 341 342 343 346 332 316 329 173 189 200 182 173 169 162 160 158 171 164 170 161 156 132 131 145 170
306 306 318 320 323 326 326 322 322 326 322 330 338 333 344 346 344 343 346 347 348 344 339 355 121 128 187 175 172 178 169 177 164 158 148 172 178 178 175 191 196 165 162
303 306 314 320 326 329 322 325 325 325 333 337 343 335 349 351 350 349 350 351 340 342 353 22 165 157 154 160 163 164 171 170 153 142 159 172 169 157 158 148 142 139 137
297 310 315 324 326 330 324 329 330 332 335 347 338 344 353 357 1 3 358 353 359 10 65 100 125 147 153 158 156 155 155 156 170 153 151 158 155 147 135 130 131 136 134
295 307 320 323 328 326 328 330 332 332 340 346 340 348 357 3 10 8 8 14 18 57 94 110 127 127 123 137 143 145 146 146 150 156 127 135 146 141 125 121 128 128 132
288 308 322 324 327 329 334 335 332 342 339 347 346 344 359 9 16 24 17 27 37 56 104 115 131 131 122 121 133 146 138 143 146 136 132 133 135 131 131 122 128 126 136
277 305 321 324 330 331 338 335 338 347 342 349 349 348 2 13 26 41 39 40 50 71 86 104 121 121 120 121 119 129 129 129 125 137 137 133 126 129 131 129 133 132 127